This is the latest recevied weather packets stored in our database for station/object PY5KT-13. If no packets are shown the sender has not sent any weather packets the latest 10 day(s).
| Time | Temp. | Humidity | Pressure | Rain* | Wind** | Luminosity | Snow |
|---|---|---|---|---|---|---|---|
| 1777503992 | 14.44° C | 99% | 1019.5 hPa | 4.06 mm | - | 38 W/m² | - |
| 1777503690 | 14.44° C | 99% | 1019.5 hPa | 3.05 mm | - | 38 W/m² | - |
| 1777503389 | 14.44° C | 99% | 1019.3 hPa | 3.56 mm | - | 38 W/m² | - |
| 1777503087 | 14.44° C | 99% | 1019 hPa | 3.56 mm | - | 38 W/m² | - |
| 1777502785 | 14.44° C | 99% | 1019 hPa | 3.56 mm | - | 38 W/m² | - |
| 1777502484 | 15° C | 99% | 1019 hPa | 3.05 mm | - | 38 W/m² | - |
| 1777502183 | 14.44° C | 99% | 1018.5 hPa | 3.81 mm | - | 38 W/m² | - |
| 1777501880 | 14.44° C | 99% | 1018.4 hPa | 3.56 mm | - | 38 W/m² | - |
| 1777501579 | 14.44° C | 99% | 1018.4 hPa | 4.06 mm | - | 38 W/m² | - |
| 1777501277 | 14.44° C | 99% | 1018.3 hPa | 4.06 mm | - | 38 W/m² | - |
| 1777500976 | 14.44° C | 99% | 1018.4 hPa | 4.32 mm | - | 38 W/m² | - |
| 1777500674 | 14.44° C | 99% | 1018.2 hPa | 4.32 mm | - | 38 W/m² | - |
| 1777500373 | 14.44° C | 99% | 1018.3 hPa | 4.57 mm | - | 37 W/m² | - |
| 1777500071 | 14.44° C | 99% | 1018.1 hPa | 4.32 mm | - | 37 W/m² | - |
| 1777499769 | 14.44° C | 99% | 1017.8 hPa | 4.83 mm | - | 38 W/m² | - |
| 1777499468 | 15° C | 99% | 1018.1 hPa | 4.32 mm | - | 38 W/m² | - |
| 1777499166 | 15° C | 99% | 1018.4 hPa | 5.33 mm | - | 37 W/m² | - |
| 1777498864 | 14.44° C | 99% | 1018.4 hPa | 4.83 mm | - | 37 W/m² | - |
| 1777498562 | 15° C | 99% | 1018.4 hPa | 4.83 mm | - | 37 W/m² | - |
| 1777498260 | 15° C | 99% | 1018.4 hPa | 4.32 mm | - | 37 W/m² | - |
| 1777497959 | 14.44° C | 99% | 1018.1 hPa | 4.57 mm | - | 37 W/m² | - |
| 1777497657 | 14.44° C | 99% | 1017.7 hPa | 4.06 mm | - | 37 W/m² | - |
| 1777497356 | 14.44° C | 99% | 1017.4 hPa | 4.32 mm | - | 37 W/m² | - |
| 1777497054 | 14.44° C | 99% | 1016.8 hPa | 4.06 mm | - | 37 W/m² | - |
| 1777496752 | 14.44° C | 99% | 1016.8 hPa | 5.08 mm | - | 37 W/m² | - |
* Rain latest hour (hover to see other rain measurements)
** Current wind speed in m/s (hover to see current wind gust speed)